User: anonymous   Login
Location: Hebron
(33.0265°N, 96.8636°W)
Time: 21:18:32
(UTC+00:00)
Language:

Cosmos 1538 Rocket - Orbit

View from above orbital plane
View from above orbital plane
View from above satellite
View from above satellite

Ground track
Ground track

The orbit data is extracted from the following two-line orbital elements,

1 14760U 84019B   22138.22590518  .00000329  00000-0  12193-3 0  9991
2 14760  74.0448  66.8202 0028503 207.2505 152.7154 14.35976720  1167
Epoch (UTC): 18 May 2022 05:25:18
Eccentricity: 0.0028503
inclination: 74.0448°
perigee height: 751 km
apogee height: 792 km
right ascension of ascending node: 66.8202°
argument of perigee: 207.2505°
revolutions per day: 14.35976720
mean anomaly at epoch: 152.7154°
orbit number at epoch: 116

The dashed part of the orbit path shows where the satellite is in the earth's shadow,  

DLR